This is the latest recevied weather packets stored in our database for station/object HG6IQI-10. If no packets are shown the sender has not sent any weather packets the latest 10 day(s).
| Time | Temp. | Humidity | Pressure | Rain* | Wind** | Luminosity | Snow |
|---|---|---|---|---|---|---|---|
| 1777735096 | 21.11° C | 32% | 1020.9 hPa | - | - | - | - |
| 1777734196 | 21.11° C | 32% | 1020.9 hPa | - | - | - | - |
| 1777733296 | 20.56° C | 33% | 1021.1 hPa | - | - | - | - |
| 1777732395 | 20.56° C | 32% | 1021.2 hPa | - | - | - | - |
| 1777731495 | 21.11° C | 31% | 1021.2 hPa | - | - | - | - |
| 1777730595 | 20.56° C | 31% | 1021.3 hPa | - | - | - | - |
| 1777729695 | 21.11° C | 31% | 1021.4 hPa | - | - | - | - |
| 1777728795 | 21.11° C | 31% | 1021.6 hPa | - | - | - | - |
| 1777727895 | 21.11° C | 31% | 1021.8 hPa | - | - | - | - |
| 1777726995 | 21.11° C | 32% | 1021.9 hPa | - | - | - | - |
| 1777726095 | 21.11° C | 31% | 1022.3 hPa | - | - | - | - |
| 1777725195 | 20.56° C | 32% | 1022.4 hPa | - | - | - | - |
| 1777724295 | 20.56° C | 34% | 1022.5 hPa | - | - | - | - |
| 1777723395 | 20.56° C | 32% | 1022.7 hPa | - | - | - | - |
| 1777722494 | 20.56° C | 32% | 1022.9 hPa | - | - | - | - |
| 1777721594 | 20° C | 33% | 1023 hPa | - | - | - | - |
| 1777720694 | 20.56° C | 32% | 1023.2 hPa | - | - | - | - |
| 1777719794 | 20° C | 32% | 1023.5 hPa | - | - | - | - |
| 1777718894 | 20.56° C | 32% | 1023.7 hPa | - | - | - | - |
| 1777717994 | 20.56° C | 32% | 1023.7 hPa | - | - | - | - |
| 1777716196 | 19.44° C | 33% | 1024.2 hPa | - | - | - | - |
| 1777715296 | 20° C | 34% | 1024.2 hPa | - | - | - | - |
| 1777714396 | 20° C | 33% | 1024.4 hPa | - | - | - | - |
| 1777713496 | 20° C | 35% | 1024.6 hPa | - | - | - | - |
| 1777712596 | 18.89° C | 35% | 1024.6 hPa | - | - | - | - |
* Rain since midnight (hover to see other rain measurements)
** Current wind speed in m/s (hover to see current wind gust speed)